Location: Fargo
(46.8667°N, 96.7833°W)
Time: 07:48:53
(UTC-05:00)

Tiangong 2 - Visible Passes

Search period start: 24 May 2019 00:00
Search period end: 03 June 2019 00:00
Orbit: 379 x 387 km, 42.8° (Epoch: 24 May)

Date Brightness Start Highest point End Pass type
(mag) Time Alt. Az. Time Alt. Az. Time Alt. Az.
24 May 1.7 22:54:28 10° WSW 22:57:22 35° S 22:57:48 33° SSE visible
25 May 1.7 21:54:29 10° WSW 21:57:26 38° S 22:00:23 10° ESE visible
25 May 3.0 23:31:13 10° WSW 23:32:35 18° SW 23:32:35 18° SW visible
26 May 2.1 22:31:04 10° WSW 22:33:52 29° SSW 22:35:08 21° SSE visible
27 May 3.1 23:08:05 10° WSW 23:09:51 16° SSW 23:09:51 16° SSW visible
28 May 2.6 22:07:45 10° WSW 22:10:19 23° SSW 22:12:23 13° SSE visible
29 May 3.5 22:45:32 10° SW 22:46:31 11° SSW 22:47:06 11° SSW visible
